Location: *
(50.5492°N, 7.7469°E)
Time: 21:32:14
(UTC+00:00)

Cosmos 1725 Rocket - Pass Details

Date: 21 October 2019
Orbit: 963 x 990 km, 82.9° (Epoch: 18 November)

Event Time Altitude Azimuth Distance (km) Brightness Sun altitude
Rises 19:25:41 0° 348° (NNW) 3,693 7.4 -29.0°
Reaches altitude 10° 19:28:13 10° 346° (NNW) 2,744 6.7 -29.4°
Maximum altitude 19:34:27 66° 265° (W) 1,070 4.2 -30.3°
Enters shadow 19:36:08 48° 206° (SSW) 1,273 4.5 -30.6°
